Flag for U.S.A. Weather past 2 weeks in Wailuku, Hawaii, U.S.A.

Now
74 °F

Broken clouds.


Feels Like: 74 °F
Forecast: 70 / 76 °F
Wind: 10 mph from Northeast

Location: Kahului Airport

Current Time: Feb 28, 2015 at 7:52:29 AM

Latest Report: Feb 28, 2015 at 6:54 AM


Visibility: 10 mi

Pressure: 29.95 "Hg

Humidity: 82%

Dew point: 68 °F

Location of WailukuLocation

Historic Weather in Wailuku — Graph

°F

Wailuku temperature yesterday

Maximum temperature yesterday: 83 °F (at 10:54 AM)
Minimum temperature yesterday: 66 °F (at 5:54 AM)
Average temperature yesterday: 75 °F

Past Weeks' High & Low Weather Summary

 TemperatureHumidityPressure
High85 °F (Feb 22, 12:54 PM)94% (Feb 14, 3:54 PM)30.08 "Hg (Feb 14, 3:54 PM)
Low57 °F (Feb 16, 3:54 AM)46% (Feb 25, 11:54 AM)29.61 "Hg (Feb 14, 2:34 PM)
Average73 °F74%29.96 "Hg
* Reported Feb 13 6:54 AM — Feb 28 6:54 AM, Wailuku, Weather by CustomWeather, © 2015

Note: Actual official high and low records may vary slightly from our data, if they occured in-between our weather recording intervals... More about our weather records

Advertising

Wailuku weather history for previous 24 hours

 ConditionsComfort  
Time TempWeatherWind HumidityBarometerVisibility
6:54 AM
Sat, Feb 28
74 °FBroken clouds.10 mph82%29.95 "Hg10 mi
5:54 AM73 °FLight rain. Mostly cloudy.13 mph88%29.94 "Hg10 mi
5:35 AM73 °FPassing clouds.5 mph89%29.93 "Hg10 mi
4:54 AM72 °FLight rain. Partly cloudy.6 mph91%29.93 "Hg10 mi
3:54 AM72 °FLight rain. Passing clouds.6 mph87%29.93 "Hg10 mi
2:54 AM73 °FPassing clouds.No wind81%29.94 "Hg10 mi
1:54 AM73 °FPassing clouds.5 mph81%29.95 "Hg10 mi
1:38 AM73 °FPartly cloudy.3 mph83%29.94 "Hg10 mi
1:13 AM73 °FPassing clouds.5 mph83%29.95 "Hg10 mi
12:54 AM74 °FClear.5 mph82%29.96 "Hg10 mi
11:54 PM
Fri, Feb 27
76 °FPassing clouds.7 mph77%29.99 "Hg10 mi
10:54 PM75 °FPassing clouds.6 mph79%29.99 "Hg10 mi
9:54 PM76 °FPassing clouds.8 mph77%29.99 "Hg10 mi
8:54 PM76 °FPassing clouds.6 mph77%29.98 "Hg10 mi
7:54 PM76 °FPassing clouds.8 mph77%29.97 "Hg10 mi
7:35 PM75 °FPassing clouds.8 mph83%29.95 "Hg10 mi
6:54 PM76 °FPassing clouds.9 mph80%29.96 "Hg10 mi
5:54 PM78 °FScattered clouds.10 mph71%29.94 "Hg10 mi
4:54 PM81 °FScattered clouds.14 mph65%29.93 "Hg10 mi
3:54 PM83 °FPartly sunny.15 mph61%29.92 "Hg10 mi
2:54 PM81 °FPartly sunny.9 mph62%29.93 "Hg10 mi
1:54 PM82 °FBroken clouds.8 mph63%29.94 "Hg10 mi
12:54 PM81 °FBroken clouds.13 mph65%29.97 "Hg10 mi
11:54 AM82 °FScattered clouds.12 mph63%29.98 "Hg10 mi
10:54 AM83 °FScattered clouds.8 mph55%30.01 "Hg10 mi
9:54 AM80 °FScattered clouds.5 mph62%30.01 "Hg10 mi
8:54 AM78 °FPassing clouds.No wind66%30.00 "Hg10 mi
7:54 AM69 °FPassing clouds.No wind87%29.98 "Hg10 mi
Weather by CustomWeather, © 2015

See weather overviewHow to use our weather pages